Mosinee, WI

5:07 AM CDT on April 26, 2017 (GMT -0500)
Central Wisconsin

Weather History for KCWA - September, 2013

Change the Weather History Date:

Monday, September 9, 2013

  Actual Average Record
Temperature  
Mean Temperature 72 °F -  
Max Temperature 84 °F 70 °F 87 °F (2002)
Min Temperature 59 °F 49 °F 37 °F (2008)
Cooling Degree Days 6    
Growing Degree Days 22 (Base 50)    
Moisture  
Dew Point 64 °F    
Average Humidity 87    
Maximum Humidity 100    
Minimum Humidity 70    
Precipitation  
Precipitation 0.00 in - - ()
Sea Level Pressure  
Sea Level Pressure 29.87 in    
Wind  
Wind Speed 6 mph (SE)    
Max Wind Speed 14 mph    
Max Gust Speed 17 mph    
Visibility 9 miles    
Events      
Averages and records for this station are not official NWS values.
T = Trace of Precipitation, MM = Missing Value Source: NWS Daily Summary

Daily Weather History Graph

Daily Weather History Graph

Search for Another Location

Airport or City:

Trip Planner

Search our weather history database for the weather conditions in past years. The results will help you decide how hot, cold, wet, or windy it might be!

Date:

Astronomy

Sep. 09, 2013 Rise Set
Actual Time 6:30 AM CDT 7:20 PM CDT
Civil Twilight 6:01 AM CDT 7:49 PM CDT
Nautical Twilight 5:25 AM CDT 8:25 PM CDT
Astronomical Twilight 4:48 AM CDT 9:01 PM CDT
Moon 11:05 AM CDT (9/9) 9:23 PM CDT (9/9)
Length of Visible Light 13h 48m
Length of Day
12h 49m
Waxing Crescent, 19% of the Moon is Illuminated
Sep 9
Waxing Crescent
Sep 12
First Quarter
Sep 19
Full
Sep 26
Last Quarter
Oct 4
New

Hourly Weather History & Observations

Time (CDT) Temp. Heat Index Dew Point Humidity Pressure Visibility Wind Dir Wind Speed Gust Speed Precip Events Conditions
12:15 AM 59.0 °F - 55.4 °F 88% 29.99 in 10.0 mi East 4.6 mph - N/A   Clear
12:35 AM 59.0 °F - 55.4 °F 88% 29.99 in 10.0 mi East 5.8 mph - N/A   Scattered Clouds
12:55 AM 59.0 °F - 55.4 °F 88% 29.99 in 10.0 mi East 4.6 mph - N/A   Mostly Cloudy
1:15 AM 59.0 °F - 55.4 °F 88% 29.99 in 10.0 mi ESE 4.6 mph - N/A   Mostly Cloudy
1:35 AM 59.0 °F - 57.2 °F 94% 29.98 in 10.0 mi ESE 4.6 mph - N/A   Mostly Cloudy
1:55 AM 59.0 °F - 57.2 °F 94% 29.97 in 10.0 mi ESE 5.8 mph - N/A   Mostly Cloudy
2:15 AM 59.0 °F - 59.0 °F 100% 29.98 in 10.0 mi ESE 4.6 mph - N/A   Mostly Cloudy
2:35 AM 59.0 °F - 59.0 °F 100% 29.97 in 10.0 mi ESE 4.6 mph - N/A   Mostly Cloudy
2:55 AM 59.0 °F - 59.0 °F 100% 29.96 in 10.0 mi ESE 4.6 mph - N/A   Overcast
3:15 AM 59.0 °F - 59.0 °F 100% 29.96 in 10.0 mi East 3.5 mph - N/A   Overcast
3:35 AM 59.0 °F - 59.0 °F 100% 29.96 in 10.0 mi East 3.5 mph - N/A   Overcast
3:55 AM 59.0 °F - 59.0 °F 100% 29.95 in 10.0 mi ESE 4.6 mph - N/A   Overcast
4:15 AM 59.0 °F - 59.0 °F 100% 29.94 in 10.0 mi East 4.6 mph - N/A   Overcast
4:35 AM 60.8 °F - 59.0 °F 94% 29.93 in 10.0 mi East 4.6 mph - N/A   Overcast
4:55 AM 60.8 °F - 59.0 °F 94% 29.93 in 10.0 mi East 4.6 mph - N/A   Overcast
5:15 AM 60.8 °F - 59.0 °F 94% 29.93 in 10.0 mi East 4.6 mph - N/A   Light Drizzle
5:35 AM 60.8 °F - 59.0 °F 94% 29.92 in 10.0 mi East 4.6 mph - N/A   Overcast
6:45 AM 60.8 °F - 59.0 °F 94% 29.92 in 10.0 mi ESE 4.6 mph - N/A   Overcast
7:45 AM 60.8 °F - 60.8 °F 100% 29.91 in 10.0 mi ESE 4.6 mph - N/A   Overcast
8:50 AM 64.4 °F - 62.6 °F 94% 29.90 in 10.0 mi SE 6.9 mph - N/A   Overcast
9:45 AM 64.4 °F - 62.6 °F 94% 29.92 in 5.0 mi Calm Calm - N/A   Overcast
10:45 AM 66.2 °F - 64.4 °F 94% 29.91 in 5.0 mi East 8.1 mph - N/A   Overcast
11:45 AM 71.6 °F - 66.2 °F 83% 29.88 in 5.0 mi ESE 6.9 mph - N/A   Haze
12:45 PM 75.2 °F - 69.8 °F 83% 29.84 in 5.0 mi SE 8.1 mph - N/A   Haze
1:45 PM 80.6 °F 83.9 °F 69.8 °F 70% 29.82 in 8.0 mi SE 12.7 mph - N/A   Partly Cloudy
2:45 PM 82.4 °F 87.2 °F 71.6 °F 70% 29.78 in 8.0 mi SE 12.7 mph - N/A   Haze
3:15 PM 84.2 °F 90.9 °F 73.4 °F 70% 29.75 in 7.0 mi South 13.8 mph - N/A   Haze
4:45 PM 84.2 °F 90.9 °F 73.4 °F 70% 29.73 in 7.0 mi SSE 11.5 mph - N/A   Haze
5:45 PM 82.4 °F 87.2 °F 71.6 °F 70% 29.73 in 7.0 mi South 11.5 mph - N/A   Haze
6:45 PM 80.6 °F 84.6 °F 71.6 °F 74% 29.73 in 7.0 mi South 10.4 mph - N/A   Clear
7:47 PM 77.0 °F - 71.6 °F 83% 29.74 in 10.0 mi South 6.9 mph - N/A   Clear
8:50 PM 78.8 °F - 73.4 °F 83% 29.75 in 10.0 mi South 10.4 mph - N/A   Clear
9:47 PM 78.8 °F - 71.6 °F 78% 29.75 in 10.0 mi SSW 10.4 mph - N/A   Clear
10:15 PM 78.8 °F - 69.8 °F 74% 29.75 in 7.0 mi SSW 11.5 mph - N/A   Clear
10:35 PM 78.8 °F - 69.8 °F 74% 29.75 in 10.0 mi SSW 11.5 mph 17.3 mph N/A   Clear
10:55 PM 78.8 °F - 69.8 °F 74% 29.76 in 10.0 mi SW 10.4 mph - N/A   Clear
11:35 PM 77.0 °F - 68.0 °F 74% 29.77 in 10.0 mi SW 9.2 mph - N/A   Clear
11:55 PM 77.0 °F - 68.0 °F 74% 29.77 in 10.0 mi SW 10.4 mph - N/A   Clear